This is the latest recevied weather packets stored in our database for station/object KF0PEC-15. If no packets are shown the sender has not sent any weather packets the latest 10 day(s).
| Time | Temp. | Humidity | Pressure | Rain* | Wind** | Luminosity | Snow |
|---|---|---|---|---|---|---|---|
| 1777438450 | 9.44° C | 53% | 1022.7 hPa | 0 mm | - | 0 W/m² | - |
| 1777437935 | 9.44° C | 52% | 1022.2 hPa | 0 mm | - | 0 W/m² | - |
| 1777437400 | 9.44° C | 52% | 1022.1 hPa | 0 mm | - | 0 W/m² | - |
| 1777436850 | 10° C | 50% | 1021.8 hPa | 0 mm | - | 0 W/m² | - |
| 1777436338 | 10° C | 51% | 1021.8 hPa | 0 mm | - | 0 W/m² | - |
| 1777435853 | 10° C | 51% | 1021.6 hPa | 0 mm | - | 0 W/m² | - |
| 1777435340 | 10° C | 50% | 1021.6 hPa | 0 mm | - | 0 W/m² | - |
| 1777434785 | 10° C | 51% | 1021.6 hPa | 0 mm | - | 0 W/m² | - |
| 1777434210 | 10° C | 52% | 1021.4 hPa | 0 mm | - | 0 W/m² | - |
| 1777433730 | 10° C | 52% | 1021.2 hPa | 0 mm | - | 0 W/m² | - |
| 1777433226 | 10° C | 51% | 1021.2 hPa | 0 mm | - | 0 W/m² | - |
| 1777432695 | 10° C | 51% | 1020.9 hPa | 0 mm | - | 0 W/m² | - |
| 1777432175 | 10.56° C | 51% | 1020.6 hPa | 0 mm | - | 0 W/m² | - |
| 1777431580 | 10.56° C | 50% | 1020.1 hPa | 0 mm | - | 0 W/m² | - |
| 1777431085 | 10.56° C | 50% | 1020 hPa | 0 mm | - | 0 W/m² | - |
| 1777430570 | 10.56° C | 48% | 1019.8 hPa | 0 mm | - | 0 W/m² | - |
| 1777429985 | 10.56° C | 49% | 1019.3 hPa | 0 mm | - | 0 W/m² | - |
| 1777429480 | 11.11° C | 49% | 1019 hPa | 0 mm | - | 0 W/m² | - |
| 1777428920 | 11.11° C | 50% | 1018.7 hPa | 0 mm | - | 0 W/m² | - |
| 1777428380 | 11.11° C | 49% | 1018.4 hPa | 0 mm | - | 11 W/m² | - |
| 1777427865 | 11.11° C | 47% | 1018.2 hPa | 0 mm | - | 40 W/m² | - |
| 1777427370 | 11.67° C | 47% | 1017.9 hPa | 0 mm | - | 282 W/m² | - |
| 1777426885 | 11.67° C | 48% | 1017.8 hPa | 0 mm | - | 536 W/m² | - |
| 1777426365 | 11.67° C | 47% | 1017.6 hPa | 0 mm | - | 876 W/m² | - |
| 1777425775 | 11.67° C | 47% | 1017.3 hPa | 0 mm | - | 150 W/m² | - |
* Rain latest hour (hover to see other rain measurements)
** Current wind speed in m/s (hover to see current wind gust speed)